Temp
42 44 44 46 46 46 46 46 47 47 47 47 47 46 47 47 47 48 48 48 48 48 48 48 48 48 48 48 49 49 48 49 50 50 51 51 51 51 50 50 50 49 49 48 49 49 48 49 48 48 48 47 48 48 49 50 50 49 49 49 49 49
43 43 44 44 45 45 46 46 46 46 46 46 46 47 47 47 47 47 47 47 48 47 48 48 48 48 48 48 48 48 48 49 49 50 50 50 51 51 50 50 49 49 48 49 48 48 48 48 48 48 48 48 48 48 48 49 48 48 48 49 49 47
42 43 44 44 45 45 45 45 45 45 46 45 45 44 44 44 45 45 46 47 47 47 47 47 47 47 48 47 48 48 48 48 48 49 49 50 49 50 49 49 49 49 49 49 48 48 48 48 47 47 47 47 47 47 48 48 47 47 47 48 48 48
43 43 44 44 43 43 44 44 45 44 44 44 44 44 44 43 43 43 44 45 46 46 46 47 47 47 47 47 47 47 47 48 48 49 49 48 49 50 49 49 49 49 49 48 48 48 48 48 48 47 47 46 45 46 45 46 46 46 46 46 46 46
42 43 43 43 43 43 44 44 43 43 44 44 44 43 44 44 44 45 45 44 44 45 45 46 45 46 46 46 46 46 47 47 47 48 48 48 48 49 49 49 49 48 48 48 48 48 47 47 47 47 46 46 46 45 45 45 45 45 44 44 45 46
43 43 42 42 43 43 43 43 44 44 44 43 43 43 43 44 44 44 45 45 45 45 45 44 44 45 45 44 45 44 45 45 46 46 46 47 47 47 49 49 48 48 48 47 47 47 46 46 46 46 46 45 45 45 45 45 44 44 44 44 44 45
42 42 42 43 43 43 43 43 43 43 43 44 43 43 43 43 44 44 44 44 44 44 44 44 44 43 43 43 44 44 44 44 44 45 44 45 46 47 47 47 48 47 47 45 46 46 45 45 46 45 45 45 45 44 44 44 44 44 43 43 44 43
43 43 42 43 43 43 43 43 43 43 43 44 44 43 43 43 44 44 43 43 42 42 42 43 43 43 42 42 42 43 43 43 43 43 43 44 44 44 45 45 46 46 46 46 46 46 46 45 45 45 44 44 44 43 44 44 44 44 44 43 43 44
41 42 42 43 43 43 43 43 42 43 43 43 43 43 43 43 43 43 43 43 43 42 42 41 40 40 40 40 41 41 42 42 42 42 41 41 41 41 41 41 42 44 44 45 45 45 45 45 45 44 44 43 43 43 42 42 43 43 43 43 43 43
40 41 42 42 42 43 43 43 43 42 42 41 42 41 41 41 42 42 42 42 42 43 42 42 42 41 40 39 39 39 39 39 39 40 41 41 41 41 42 41 41 42 42 42 43 44 44 44 44 44 44 44 43 42 41 42 42 43 43 43 43 43
40 40 41 41 42 42 42 42 43 43 43 42 42 41 40 41 41 41 41 41 42 42 42 42 43 43 42 41 40 38 38 37 37 37 38 38 39 39 40 41 41 41 41 41 41 42 43 42 43 44 43 42 42 42 40 40 40 41 42 42 42 42
40 40 41 41 41 41 41 42 42 42 41 41 41 40 40 40 39 40 40 40 41 42 42 42 42 41 41 40 40 39 39 38 38 37 37 37 38 39 39 39 40 41 41 41 41 41 40 40 41 40 40 41 41 41 40 40 39 40 41 42 41 41
40 40 40 40 41 41 41 41 41 41 41 40 40 40 40 40 39 39 40 39 40 41 41 41 40 40 38 40 39 37 37 37 36 36 36 37 37 37 38 38 38 39 40 40 41 42 41 40 40 39 40 40 41 40 40 37 38 39 41 41 41 40
40 40 40 40 41 41 41 40 40 40 39 40 39 39 39 38 38 38 38 38 39 39 39 38 38 37 36 37 36 36 35 35 35 35 35 36 36 36 37 37 38 39 39 39 40 40 41 42 40 40 40 40 40 40 38 38 37 37 40 40 40 40
40 40 40 41 41 40 41 41 40 39 39 39 39 39 37 37 37 37 36 37 37 37 38 37 35 33 33 34 35 35 34 34 34 34 34 34 35 36 36 37 38 38 38 39 38 38 39 40 40 40 40 40 40 40 40 38 37 37 37 39 39 39
41 41 41 41 41 42 42 41 40 39 40 39 39 37 36 36 35 36 35 35 35 36 36 35 32 31 31 33 34 34 33 32 32 33 33 34 35 35 35 35 35 36 37 38 38 38 38 39 39 40 40 39 39 40 39 37 36 36 37 38 39 39
40 41 40 41 41 41 41 40 41 40 39 38 36 36 34 35 34 33 34 34 34 34 33 31 31 29 30 31 32 31 30 31 30 30 31 32 33 33 34 35 34 34 34 34 35 36 36 37 38 39 39 39 40 40 39 37 37 36 36 38 38 38
41 41 41 41 41 40 40 40 40 39 37 37 35 33 32 32 31 32 33 32 31 32 32 31 28 28 28 29 30 29 28 28 28 27 29 30 31 33 34 35 34 34 33 34 34 34 34 36 37 37 38 38 39 40 37 37 36 36 36 36 38 37
42 42 41 40 40 40 39 40 38 37 35 34 32 31 31 30 30 30 31 30 32 31 31 30 28 26 26 27 28 27 26 25 25 26 27 27 29 30 32 31 32 33 33 33 33 33 33 34 35 36 37 37 38 38 36 36 36 36 35 35 37 37
42 41 40 39 39 39 38 38 36 34 32 31 32 30 29 29 29 30 29 30 30 31 29 28 26 24 25 25 25 24 24 24 24 24 25 26 26 28 29 31 32 32 33 32 32 32 32 32 34 35 36 36 37 37 35 35 35 35 35 35 36 37
40 39 38 37 35 37 37 35 32 30 29 29 29 29 28 28 29 29 29 30 31 30 28 26 25 23 23 23 23 22 21 20 21 22 24 25 26 27 29 30 30 31 31 32 31 32 32 32 33 34 35 36 36 36 35 35 35 34 35 35 35 35
37 36 35 35 35 36 34 32 30 27 27 28 28 27 26 27 28 30 30 30 29 27 25 24 22 22 22 21 20 20 19 20 20 21 21 22 24 25 26 28 28 28 30 31 31 31 32 32 32 33 34 35 35 36 35 35 34 33 34 35 35 33
35 34 34 34 34 33 31 29 27 26 26 27 26 25 27 28 29 28 27 28 25 24 23 22 21 20 20 19 18 18 18 18 18 19 19 19 21 22 23 24 25 26 27 29 30 31 31 31 31 31 33 34 35 35 35 34 34 34 34 35 34 33
32 31 32 32 33 31 29 27 24 23 24 24 23 24 28 27 27 26 24 22 21 21 20 19 19 19 18 17 17 16 16 17 17 17 17 19 19 19 19 20 23 25 27 29 30 30 31 31 31 31 32 33 34 35 35 34 34 35 34 34 33 32
29 29 29 30 29 29 27 24 21 21 21 21 22 25 25 25 24 22 21 19 18 17 17 17 16 16 16 15 15 14 13 15 15 15 15 15 16 17 18 20 22 24 26 27 30 31 31 31 31 31 31 32 33 34 34 35 35 36 35 33 32 31
27 26 27 26 26 25 24 22 19 19 18 18 23 22 21 20 20 19 17 16 16 15 15 15 15 15 15 14 14 13 12 12 13 13 14 15 15 16 17 20 22 25 26 26 28 30 32 32 32 31 31 31 32 33 34 35 35 36 34 34 33 32
21 21 21 22 22 21 20 20 17 16 15 18 20 18 17 16 15 14 13 13 13 13 13 13 13 13 13 12 12 11 11 11 12 11 12 14 14 16 16 19 21 23 25 27 27 29 30 31 32 31 31 31 31 32 33 33 34 35 36 33 33 33
18 17 16 17 18 18 17 16 16 12 13 16 15 14 13 12 11 10 9 10 10 10 10 10 10 11 11 11 11 11 11 10 11 11 11 13 13 15 16 18 21 23 24 26 27 28 29 30 31 30 29 29 30 30 31 32 33 33 34 34 33 33
14 13 13 11 13 13 13 12 11 11 11 10 11 10 9 8 7 6 6 6 7 8 8 7 8 8 8 9 9 10 10 11 10 10 11 12 13 13 15 17 19 21 23 24 26 27 28 28 30 30 30 29 29 29 29 29 30 32 32 32 33 32
10 9 9 8 9 9 8 8 7 8 8 7 7 6 5 4 4 3 3 4 4 5 5 5 6 6 6 7 7 7 8 9 10 9 9 11 12 13 14 15 17 19 21 23 25 26 27 28 29 30 29 29 28 28 29 28 29 29 30 30 31 31
7 6 5 5 7 6 5 5 5 5 5 5 5 4 2 2 2 2 2 2 3 3 4 5 5 5 5 5 6 6 7 7 7 8 9 11 13 14 14 15 16 18 20 22 24 24 25 26 27 29 31 30 30 28 28 27 28 28 29 30 32 29
4 3 3 3 5 4 3 3 3 4 4 4 4 3 2 1 1 1 1 2 2 3 3 4 4 4 4 4 4 4 5 10 13 11 9 9 14 17 19 20 17 19 21 21 23 25 24 25 28 31 32 31 31 31 30 30 30 30 30 31 33 30
2 2 1 2 3 2 2 2 2 2 3 3 3 3 1 1 1 1 1 2 2 3 3 3 3 3 4 4 4 4 4 4 7 13 15 16 16 18 20 22 23 24 25 23 22 25 29 29 30 30 31 31 32 32 31 31 31 31 31 32 30 27
1 1 1 2 2 1 1 1 1 2 2 3 3 2 1 1 0 -0 1 1 2 2 3 3 2 3 3 3 4 3 3 3 3 5 12 16 17 18 19 19 20 21 22 23 23 22 22 26 28 30 30 31 32 32 32 31 32 32 32 32 32 25
1 1 1 1 0 -0 0 -0 0 2 2 2 2 2 1 0 -0 -1 -0 0 1 2 2 2 2 2 2 2 2 3 3 3 3 3 4 8 13 15 16 16 17 19 20 21 22 23 24 25 26 29 30 31 32 32 32 32 32 32 32 32 29 24
0 0 -0 -1 -1 -1 -1 -1 0 1 1 2 1 1 -0 -0 -1 -0 0 0 1 1 1 1 2 2 2 3 3 3 3 3 3 2 2 2 3 6 10 14 16 17 19 20 22 24 25 26 27 29 30 31 32 32 32 31 30 32 32 31 27 26
-1 -1 -1 -1 -1 -1 -1 -1 -0 1 1 1 0 -0 -1 -1 -1 -0 0 1 1 1 1 2 2 2 2 2 2 2 2 2 3 3 2 2 1 2 3 5 9 15 18 18 21 25 28 28 29 30 31 32 33 32 32 32 29 27 27 28 28 27
-2 -2 -1 -0 -1 -1 -2 -2 -0 1 1 0 -0 -1 -2 -1 -1 -1 -0 1 1 1 1 2 2 2 2 2 2 2 2 3 3 2 3 3 4 3 4 5 7 8 13 17 20 21 23 29 30 30 31 32 32 32 32 27 26 26 26 26 28 27
MSLP
1018.21 1017.97 1017.69 1017.29 1017.09 1016.97 1016.85 1016.81 1016.69 1016.53 1016.25 1015.97 1015.61 1015.49 1015.45 1015.41 1015.37 1015.21 1014.97 1014.69 1014.41 1014.09 1013.77 1013.41 1013.09 1012.93 1012.85 1012.73 1012.57 1012.45 1012.33 1012.13 1011.97 1011.81 1011.65 1011.61 1011.61 1011.65 1011.73 1011.81 1011.85 1011.93 1012.05 1012.17 1012.29 1012.41 1012.49 1012.61 1012.73 1012.93 1013.13 1013.29 1013.45 1013.61 1013.73 1013.85 1014.05 1014.17 1014.25 1014.29 1014.57 1014.57
1018.13 1017.85 1017.53 1017.25 1017.13 1017.01 1016.93 1016.85 1016.73 1016.49 1016.13 1015.73 1015.57 1015.45 1015.37 1015.33 1015.17 1014.93 1014.69 1014.45 1014.25 1014.09 1013.77 1013.45 1013.33 1013.17 1013.05 1012.89 1012.69 1012.53 1012.33 1012.09 1011.93 1011.81 1011.65 1011.53 1011.45 1011.45 1011.49 1011.53 1011.57 1011.61 1011.69 1011.77 1011.89 1011.97 1012.13 1012.33 1012.49 1012.69 1012.81 1012.97 1012.93 1012.89 1013.01 1013.05 1013.41 1013.61 1013.69 1013.85 1014.01 1014.25
1018.17 1017.89 1017.65 1017.45 1017.25 1017.17 1017.09 1016.89 1016.61 1016.29 1015.93 1015.85 1015.89 1015.85 1015.61 1015.29 1015.05 1014.77 1014.65 1014.45 1014.29 1014.13 1013.93 1013.77 1013.61 1013.45 1013.25 1013.09 1012.85 1012.65 1012.41 1012.21 1012.05 1011.89 1011.65 1011.49 1011.41 1011.29 1011.33 1011.33 1011.29 1011.25 1011.29 1011.37 1011.49 1011.61 1011.69 1011.81 1012.05 1012.25 1012.49 1012.57 1012.57 1012.61 1012.53 1012.57 1012.69 1012.85 1013.01 1013.25 1013.41 1013.65
1018.05 1017.89 1017.73 1017.57 1017.41 1017.13 1016.81 1016.49 1016.21 1016.01 1016.09 1016.17 1016.13 1015.97 1015.85 1015.73 1015.45 1015.25 1014.97 1014.81 1014.69 1014.49 1014.33 1014.09 1013.89 1013.73 1013.45 1013.29 1013.01 1012.77 1012.61 1012.37 1012.17 1011.93 1011.77 1011.65 1011.37 1011.29 1011.21 1011.13 1011.05 1011.01 1011.01 1011.05 1011.09 1011.21 1011.33 1011.41 1011.61 1011.81 1012.01 1012.09 1012.17 1012.25 1012.29 1012.37 1012.37 1012.45 1012.49 1012.65 1012.73 1012.89
1018.05 1017.89 1017.69 1017.45 1017.25 1017.01 1016.81 1016.65 1016.57 1016.61 1016.61 1016.53 1016.41 1016.25 1016.09 1015.93 1015.89 1015.65 1015.41 1015.21 1014.97 1014.73 1014.61 1014.45 1014.25 1013.97 1013.65 1013.45 1013.21 1013.01 1012.73 1012.49 1012.25 1012.05 1011.89 1011.65 1011.41 1011.25 1011.13 1011.05 1010.93 1010.81 1010.73 1010.73 1010.77 1010.89 1010.97 1011.05 1011.17 1011.29 1011.45 1011.53 1011.61 1011.65 1011.73 1011.77 1011.89 1011.97 1012.09 1012.09 1011.89 1012.09
1017.77 1017.65 1017.53 1017.37 1017.29 1017.17 1017.09 1017.05 1016.97 1016.93 1016.89 1016.85 1016.81 1016.77 1016.57 1016.33 1016.13 1015.93 1015.65 1015.45 1015.21 1014.97 1014.77 1014.61 1014.41 1014.13 1013.89 1013.65 1013.41 1013.25 1012.97 1012.69 1012.37 1012.17 1011.97 1011.73 1011.49 1011.33 1011.09 1010.97 1010.81 1010.65 1010.53 1010.45 1010.53 1010.61 1010.65 1010.73 1010.77 1010.85 1010.89 1010.97 1011.09 1011.13 1011.17 1011.25 1011.41 1011.45 1011.53 1011.57 1011.61 1011.69
1017.89 1017.85 1017.85 1017.73 1017.61 1017.57 1017.53 1017.45 1017.37 1017.25 1017.13 1017.01 1017.01 1016.97 1016.89 1016.69 1016.45 1016.25 1015.97 1015.69 1015.41 1015.09 1014.93 1014.73 1014.45 1014.29 1014.05 1013.85 1013.53 1013.33 1013.05 1012.81 1012.53 1012.29 1012.09 1011.81 1011.57 1011.33 1011.13 1010.93 1010.73 1010.53 1010.37 1010.25 1010.21 1010.25 1010.25 1010.29 1010.33 1010.37 1010.41 1010.49 1010.61 1010.69 1010.69 1010.73 1010.77 1010.89 1010.97 1011.09 1011.13 1011.25
1018.05 1017.89 1017.81 1017.77 1017.69 1017.69 1017.65 1017.57 1017.53 1017.41 1017.25 1017.13 1017.01 1016.97 1016.81 1016.73 1016.53 1016.37 1016.09 1015.85 1015.65 1015.37 1015.13 1014.89 1014.69 1014.49 1014.29 1014.05 1013.73 1013.41 1013.09 1012.81 1012.61 1012.41 1012.17 1012.05 1011.81 1011.53 1011.25 1010.93 1010.61 1010.41 1010.21 1010.09 1010.05 1010.01 1009.89 1009.89 1009.93 1009.93 1009.93 1010.05 1010.21 1010.33 1010.37 1010.37 1010.37 1010.37 1010.53 1010.65 1010.69 1010.69
1018.57 1018.33 1018.13 1017.85 1017.69 1017.57 1017.57 1017.53 1017.45 1017.37 1017.25 1017.17 1017.01 1016.93 1016.81 1016.69 1016.49 1016.29 1016.05 1015.85 1015.65 1015.45 1015.25 1015.13 1014.89 1014.65 1014.41 1014.17 1013.93 1013.61 1013.25 1012.93 1012.69 1012.45 1012.25 1011.97 1011.77 1011.53 1011.25 1011.01 1010.77 1010.45 1010.21 1009.97 1009.85 1009.73 1009.69 1009.65 1009.61 1009.57 1009.61 1009.77 1009.93 1010.05 1010.13 1010.13 1010.05 1010.05 1010.09 1010.13 1010.17 1010.25
1018.57 1018.37 1018.21 1018.05 1017.89 1017.69 1017.53 1017.45 1017.41 1017.41 1017.33 1017.21 1017.09 1017.05 1016.93 1016.69 1016.49 1016.25 1016.05 1015.85 1015.61 1015.37 1015.17 1014.97 1014.77 1014.57 1014.37 1014.13 1013.89 1013.69 1013.45 1013.21 1012.89 1012.57 1012.25 1011.93 1011.57 1011.25 1010.97 1010.77 1010.53 1010.25 1010.13 1009.89 1009.69 1009.49 1009.45 1009.41 1009.33 1009.29 1009.29 1009.41 1009.53 1009.73 1009.81 1009.89 1009.85 1009.81 1009.69 1009.65 1009.77 1009.85
1018.33 1018.25 1018.13 1018.05 1017.89 1017.77 1017.61 1017.53 1017.41 1017.29 1017.25 1017.17 1017.13 1017.05 1016.97 1016.73 1016.53 1016.29 1016.09 1015.89 1015.65 1015.41 1015.17 1014.85 1014.61 1014.45 1014.21 1014.01 1013.77 1013.49 1013.17 1012.93 1012.73 1012.49 1012.25 1011.97 1011.69 1011.33 1011.01 1010.65 1010.37 1010.09 1009.85 1009.69 1009.57 1009.41 1009.21 1009.05 1008.89 1008.89 1008.97 1009.09 1009.13 1009.17 1009.33 1009.57 1009.65 1009.53 1009.29 1009.13 1009.17 1009.25
1018.25 1018.09 1018.05 1018.01 1017.85 1017.81 1017.69 1017.57 1017.49 1017.45 1017.41 1017.25 1017.09 1017.01 1016.85 1016.73 1016.57 1016.29 1016.01 1015.81 1015.53 1015.33 1015.13 1014.89 1014.69 1014.45 1014.25 1014.01 1013.77 1013.53 1013.33 1013.01 1012.65 1012.29 1011.93 1011.65 1011.41 1011.21 1010.97 1010.69 1010.37 1010.09 1009.77 1009.49 1009.29 1009.13 1009.05 1008.85 1008.65 1008.61 1008.73 1008.73 1008.77 1008.81 1008.89 1009.09 1009.17 1009.13 1008.97 1008.81 1008.69 1008.69
1018.01 1017.97 1017.85 1017.81 1017.77 1017.73 1017.73 1017.65 1017.57 1017.61 1017.49 1017.33 1017.29 1017.21 1017.05 1016.93 1016.69 1016.33 1016.13 1015.81 1015.49 1015.25 1014.97 1014.81 1014.61 1014.45 1014.29 1013.93 1013.73 1013.57 1013.37 1013.09 1012.77 1012.41 1012.01 1011.61 1011.33 1011.05 1010.69 1010.45 1010.21 1009.97 1009.69 1009.37 1009.05 1008.77 1008.49 1008.33 1008.25 1008.25 1008.25 1008.21 1008.29 1008.41 1008.45 1008.61 1008.69 1008.73 1008.61 1008.37 1008.21 1008.09
1017.85 1017.77 1017.73 1017.65 1017.61 1017.57 1017.57 1017.57 1017.53 1017.53 1017.37 1017.21 1017.25 1017.21 1017.13 1017.05 1016.77 1016.53 1016.25 1015.93 1015.61 1015.29 1015.01 1014.69 1014.49 1014.33 1014.05 1013.73 1013.53 1013.33 1013.21 1013.01 1012.77 1012.41 1011.97 1011.65 1011.29 1010.89 1010.61 1010.33 1009.93 1009.57 1009.37 1009.17 1008.93 1008.65 1008.25 1007.81 1007.61 1007.77 1007.77 1007.73 1007.77 1007.89 1007.97 1008.05 1008.13 1008.17 1008.05 1007.81 1007.73 1007.69
1017.73 1017.65 1017.57 1017.49 1017.41 1017.37 1017.33 1017.33 1017.41 1017.37 1017.25 1017.17 1017.09 1017.13 1017.13 1017.01 1016.81 1016.57 1016.29 1016.01 1015.77 1015.41 1015.09 1014.85 1014.65 1014.37 1014.05 1013.69 1013.33 1013.09 1012.85 1012.61 1012.37 1012.09 1011.81 1011.53 1011.17 1010.85 1010.57 1010.17 1009.77 1009.37 1009.05 1008.85 1008.61 1008.33 1007.97 1007.61 1007.37 1007.37 1007.29 1007.25 1007.29 1007.33 1007.53 1007.53 1007.49 1007.49 1007.37 1007.21 1007.13 1007.09
1017.41 1017.37 1017.33 1017.29 1017.21 1017.13 1017.09 1017.17 1017.21 1017.13 1017.05 1017.09 1017.05 1017.09 1017.01 1016.85 1016.69 1016.53 1016.29 1016.05 1015.81 1015.45 1015.17 1014.97 1014.81 1014.57 1014.25 1013.77 1013.37 1013.01 1012.73 1012.41 1012.13 1011.85 1011.65 1011.33 1010.93 1010.69 1010.37 1010.01 1009.73 1009.29 1008.93 1008.65 1008.37 1008.01 1007.69 1007.41 1007.13 1007.05 1006.89 1006.81 1006.89 1006.89 1007.01 1007.01 1006.97 1006.85 1006.69 1006.53 1006.45 1006.45
1017.13 1017.09 1017.05 1016.97 1016.93 1016.97 1017.01 1017.01 1016.93 1016.89 1016.93 1016.97 1017.01 1016.97 1016.93 1016.81 1016.57 1016.41 1016.17 1015.97 1015.69 1015.45 1015.25 1015.01 1014.85 1014.69 1014.25 1013.81 1013.37 1013.09 1012.81 1012.49 1012.09 1011.89 1011.65 1011.29 1010.89 1010.45 1010.09 1009.73 1009.45 1009.17 1008.89 1008.57 1008.21 1007.81 1007.37 1007.01 1006.85 1006.81 1006.61 1006.45 1006.45 1006.41 1006.53 1006.49 1006.41 1006.29 1006.05 1005.93 1005.93 1005.93
1016.69 1016.69 1016.65 1016.69 1016.81 1016.85 1016.85 1016.89 1016.81 1016.89 1016.89 1016.85 1016.97 1016.89 1016.85 1016.73 1016.53 1016.21 1015.97 1015.77 1015.53 1015.29 1015.09 1015.01 1014.89 1014.69 1014.37 1013.93 1013.41 1013.13 1012.89 1012.53 1012.29 1012.05 1011.65 1011.33 1010.77 1010.21 1009.85 1009.53 1009.33 1008.97 1008.57 1008.25 1007.97 1007.61 1007.05 1006.49 1006.41 1006.41 1006.33 1006.25 1006.13 1006.13 1006.09 1005.97 1005.85 1005.69 1005.49 1005.29 1005.25 1005.29
1016.33 1016.33 1016.41 1016.49 1016.53 1016.57 1016.61 1016.65 1016.77 1016.85 1016.81 1016.81 1016.81 1016.77 1016.65 1016.49 1016.29 1016.01 1015.73 1015.53 1015.17 1015.05 1014.89 1014.81 1014.81 1014.65 1014.33 1013.89 1013.45 1013.17 1012.97 1012.73 1012.37 1012.05 1011.81 1011.41 1010.77 1010.09 1009.57 1009.21 1009.01 1008.69 1008.29 1007.93 1007.65 1007.37 1006.77 1006.17 1005.89 1005.97 1005.97 1005.93 1005.93 1005.89 1005.73 1005.49 1005.33 1005.09 1004.85 1004.61 1004.53 1004.65
1016.17 1016.21 1016.33 1016.29 1016.33 1016.37 1016.53 1016.69 1016.85 1016.93 1016.89 1016.77 1016.61 1016.57 1016.33 1016.13 1015.93 1015.65 1015.45 1015.17 1014.89 1014.69 1014.57 1014.61 1014.65 1014.49 1014.17 1013.85 1013.53 1013.29 1013.05 1012.81 1012.57 1012.25 1011.85 1011.45 1010.69 1010.01 1009.53 1009.01 1008.49 1008.09 1007.81 1007.53 1007.17 1006.93 1006.53 1005.81 1005.41 1005.49 1005.49 1005.49 1005.45 1005.45 1005.33 1005.05 1004.77 1004.41 1004.13 1003.89 1003.89 1004.09
1016.29 1016.45 1016.57 1016.57 1016.53 1016.33 1016.45 1016.77 1017.01 1017.05 1016.93 1016.65 1016.45 1016.29 1016.09 1015.85 1015.61 1015.41 1015.17 1014.85 1014.61 1014.49 1014.45 1014.45 1014.45 1014.37 1014.09 1013.73 1013.53 1013.45 1013.29 1012.97 1012.69 1012.13 1011.73 1011.29 1010.61 1009.89 1009.29 1008.77 1008.33 1007.73 1007.29 1006.93 1006.65 1006.37 1006.21 1005.57 1005.01 1004.97 1004.97 1004.89 1004.89 1004.89 1004.81 1004.61 1004.33 1003.85 1003.33 1003.21 1003.25 1003.53
1016.97 1016.89 1016.77 1016.69 1016.57 1016.49 1016.73 1016.93 1017.01 1017.05 1016.89 1016.57 1016.25 1016.05 1015.77 1015.61 1015.41 1015.09 1014.93 1014.73 1014.53 1014.45 1014.41 1014.37 1014.37 1014.13 1013.89 1013.65 1013.49 1013.45 1013.33 1012.97 1012.57 1012.13 1011.73 1011.21 1010.73 1010.01 1009.29 1008.73 1008.09 1007.49 1006.85 1006.45 1006.17 1005.89 1005.53 1005.17 1004.57 1004.33 1004.33 1004.25 1004.21 1004.25 1004.21 1004.01 1003.81 1003.25 1002.77 1002.69 1002.73 1002.97
1017.29 1017.21 1017.05 1016.93 1016.81 1016.89 1017.01 1017.13 1017.21 1016.97 1016.65 1016.41 1016.17 1015.77 1015.53 1015.37 1015.17 1015.09 1014.93 1014.73 1014.57 1014.49 1014.41 1014.29 1014.13 1013.89 1013.65 1013.65 1013.57 1013.25 1013.01 1012.77 1012.49 1012.09 1011.73 1011.33 1010.69 1010.09 1009.33 1008.61 1008.01 1007.33 1006.49 1005.81 1005.45 1005.17 1004.85 1004.61 1004.21 1003.69 1003.73 1003.65 1003.49 1003.45 1003.61 1003.41 1003.05 1002.69 1002.53 1002.41 1002.29 1002.45
1017.65 1017.41 1017.17 1016.93 1016.89 1016.97 1017.09 1017.33 1017.41 1017.13 1016.85 1016.61 1016.13 1015.77 1015.57 1015.29 1015.21 1015.13 1014.97 1014.81 1014.57 1014.41 1014.29 1014.13 1013.89 1013.77 1013.53 1013.37 1013.41 1013.21 1012.73 1012.33 1012.21 1011.89 1011.53 1011.13 1010.49 1009.85 1009.25 1008.49 1007.61 1006.77 1005.81 1005.05 1004.53 1004.29 1004.05 1003.73 1003.65 1003.33 1003.13 1003.13 1002.93 1002.81 1002.85 1002.85 1002.33 1002.17 1002.33 1002.21 1001.89 1002.05
1017.85 1017.57 1017.33 1017.13 1017.17 1017.25 1017.33 1017.53 1017.57 1017.29 1017.05 1016.73 1016.21 1015.97 1015.69 1015.49 1015.37 1015.17 1014.93 1014.69 1014.49 1014.29 1014.05 1013.85 1013.73 1013.49 1013.29 1013.17 1013.01 1012.93 1012.41 1011.89 1011.73 1011.45 1011.17 1010.69 1010.09 1009.45 1008.65 1007.69 1006.81 1005.97 1005.09 1004.37 1003.69 1003.21 1002.97 1002.85 1002.77 1002.81 1002.61 1002.49 1002.45 1002.29 1002.17 1002.09 1001.89 1001.81 1002.01 1001.81 1001.53 1001.53
1018.17 1017.93 1017.61 1017.61 1017.69 1017.77 1017.85 1017.93 1017.85 1017.57 1017.25 1016.81 1016.41 1016.17 1015.89 1015.73 1015.57 1015.33 1014.97 1014.61 1014.25 1013.93 1013.65 1013.45 1013.29 1013.13 1012.93 1012.77 1012.65 1012.45 1012.09 1011.53 1011.25 1010.97 1010.57 1010.01 1009.53 1008.73 1007.85 1006.73 1005.77 1004.93 1004.13 1003.49 1002.81 1002.29 1001.89 1001.69 1001.73 1001.77 1001.81 1001.81 1001.81 1001.73 1001.61 1001.49 1001.41 1001.41 1001.41 1001.37 1001.09 1001.09
1018.89 1018.57 1018.25 1018.01 1018.05 1018.21 1018.21 1018.17 1018.21 1017.85 1017.57 1017.01 1016.81 1016.45 1016.21 1015.97 1015.81 1015.57 1015.05 1014.61 1014.13 1013.77 1013.37 1013.25 1012.97 1012.73 1012.57 1012.41 1012.37 1012.01 1011.49 1010.97 1010.69 1010.37 1009.73 1009.57 1008.89 1008.05 1007.17 1006.01 1005.17 1004.29 1003.37 1002.69 1002.17 1001.57 1001.09 1000.85 1000.69 1000.81 1000.89 1001.01 1001.01 1001.05 1001.05 1000.97 1000.89 1000.77 1000.77 1000.77 1000.49 1000.53
1019.41 1019.25 1018.93 1018.37 1018.41 1018.73 1018.61 1018.45 1018.45 1018.37 1017.85 1017.45 1017.33 1017.09 1016.85 1016.45 1016.05 1015.57 1015.05 1014.61 1014.17 1013.73 1013.45 1013.17 1012.65 1012.41 1012.17 1011.97 1011.77 1011.41 1010.89 1010.45 1010.01 1009.65 1009.05 1008.77 1008.17 1007.33 1006.45 1005.41 1004.49 1003.53 1002.73 1002.01 1001.41 1000.89 1000.37 1000.13 999.93 999.93 1000.09 1000.29 1000.37 1000.37 1000.41 1000.37 1000.25 1000.09 999.97 999.89 999.85 999.93
1019.93 1019.57 1019.45 1019.13 1018.73 1019.01 1018.97 1019.09 1019.01 1018.93 1018.57 1018.17 1017.73 1017.37 1017.05 1016.77 1016.45 1015.85 1015.21 1014.65 1014.17 1013.73 1013.41 1013.13 1012.57 1012.01 1011.61 1011.45 1011.05 1010.57 1010.13 1009.77 1009.37 1008.93 1008.33 1007.81 1007.33 1006.69 1005.85 1004.93 1004.01 1003.13 1002.33 1001.49 1000.77 1000.21 999.85 999.57 999.29 999.13 999.21 999.45 999.65 999.69 999.73 999.85 999.77 999.57 999.61 999.73 999.57 999.65
1020.77 1020.53 1020.21 1019.81 1019.37 1019.49 1019.49 1019.41 1019.25 1018.93 1018.73 1018.41 1018.13 1017.73 1017.33 1016.97 1016.61 1016.13 1015.29 1014.77 1014.45 1013.85 1013.41 1013.01 1012.41 1012.01 1011.41 1010.85 1010.57 1010.05 1009.49 1009.09 1008.81 1008.37 1007.73 1007.09 1006.53 1006.01 1005.17 1004.49 1003.65 1002.85 1001.97 1001.13 1000.37 999.77 999.37 998.97 998.57 998.29 998.29 998.57 998.93 999.21 999.33 999.37 999.41 999.37 999.33 999.21 999.13 999.33
1021.33 1021.05 1020.93 1020.45 1020.05 1019.89 1019.61 1019.33 1019.09 1018.85 1018.61 1018.29 1018.01 1017.73 1017.33 1016.73 1016.25 1015.77 1015.21 1014.69 1014.17 1013.53 1013.09 1012.65 1012.05 1011.61 1011.13 1010.45 1009.97 1009.49 1009.01 1008.61 1008.17 1007.69 1006.85 1006.21 1005.97 1005.37 1004.69 1003.93 1003.05 1002.29 1001.65 1001.09 1000.33 999.77 999.05 998.49 998.05 997.53 997.61 997.93 998.25 998.53 998.77 998.89 998.89 998.89 998.85 998.65 998.57 999.05
1021.89 1021.57 1021.09 1020.57 1020.17 1019.93 1019.61 1019.21 1018.85 1018.57 1018.21 1017.93 1017.65 1017.41 1017.01 1016.37 1015.77 1015.17 1014.61 1014.21 1013.65 1013.09 1012.65 1012.05 1011.53 1011.05 1010.61 1010.05 1009.41 1008.81 1008.01 1007.65 1007.41 1006.73 1006.17 1005.09 1004.77 1004.41 1003.69 1003.21 1002.21 1001.45 1001.13 1000.61 999.81 999.41 998.81 998.01 997.37 997.41 997.45 997.49 997.57 997.65 997.77 997.85 998.01 998.09 998.13 998.17 998.17 998.41
1021.93 1021.57 1021.05 1020.45 1019.97 1019.65 1019.33 1018.85 1018.41 1018.05 1017.69 1017.61 1017.25 1016.93 1016.49 1016.05 1015.45 1014.57 1014.01 1013.61 1013.05 1012.65 1012.21 1011.65 1011.09 1010.57 1010.17 1009.53 1009.05 1008.37 1007.57 1006.69 1006.17 1005.93 1005.13 1004.25 1003.53 1003.13 1002.57 1001.85 1001.05 1000.49 1000.09 999.81 999.05 998.49 998.17 997.69 997.29 997.13 997.09 997.09 997.09 997.09 997.01 997.09 997.25 997.37 997.45 997.61 997.77 998.05
1021.69 1021.29 1020.65 1019.97 1019.69 1019.37 1019.01 1018.65 1018.05 1017.73 1017.25 1017.05 1016.77 1016.45 1016.05 1015.57 1015.13 1014.21 1013.57 1013.17 1012.61 1012.13 1011.65 1011.09 1010.57 1010.01 1009.53 1008.93 1008.53 1007.89 1007.21 1006.49 1005.53 1004.53 1004.13 1003.45 1002.97 1002.61 1002.05 1001.41 1000.73 1000.25 999.89 999.45 999.05 998.61 997.89 997.29 996.85 996.57 996.45 996.37 996.37 996.33 996.41 996.53 996.61 996.69 996.81 996.93 997.05 997.57
1021.25 1020.77 1020.33 1019.85 1019.45 1019.09 1018.69 1018.25 1017.53 1017.21 1016.89 1016.53 1016.21 1015.89 1015.49 1015.05 1014.65 1013.97 1013.29 1012.77 1012.17 1011.57 1011.05 1010.57 1009.97 1009.45 1008.93 1008.33 1007.77 1007.25 1006.73 1006.01 1005.29 1004.37 1003.57 1003.45 1003.37 1002.85 1002.45 1001.97 1001.25 1000.41 999.65 999.09 998.49 998.01 997.49 996.65 996.17 996.01 995.73 995.57 995.49 995.53 995.73 995.93 996.05 996.13 996.21 996.49 996.53 996.81
1020.93 1020.45 1020.01 1019.53 1019.09 1018.73 1018.17 1017.57 1016.97 1016.81 1016.49 1016.17 1015.77 1015.41 1015.05 1014.53 1014.05 1013.57 1012.93 1012.29 1011.69 1011.17 1010.57 1010.01 1009.41 1008.81 1008.21 1007.69 1007.17 1006.65 1006.09 1005.53 1005.05 1004.33 1003.85 1003.17 1002.81 1002.41 1001.73 1001.17 1000.41 999.69 999.01 998.29 997.61 996.93 996.41 995.93 995.45 995.09 994.89 994.77 994.65 994.69 994.89 995.21 995.45 995.53 995.61 995.81 995.81 995.89
1020.61 1020.05 1019.57 1019.13 1018.61 1018.17 1017.65 1017.13 1016.65 1016.41 1016.09 1015.69 1015.33 1014.93 1014.45 1014.01 1013.53 1012.93 1012.25 1011.77 1011.29 1010.69 1010.05 1009.45 1008.89 1008.33 1007.77 1007.25 1006.81 1006.25 1005.73 1005.13 1004.61 1004.13 1003.61 1003.17 1002.69 1002.21 1001.61 1000.77 999.85 999.01 998.33 997.29 996.45 995.45 994.73 994.45 994.29 994.09 993.81 993.65 993.61 993.81 994.09 994.57 994.93 995.05 995.05 995.01 994.85 995.05
1020.25 1019.69 1019.09 1018.69 1018.17 1017.69 1017.25 1016.65 1016.25 1015.93 1015.57 1015.21 1014.81 1014.37 1013.89 1013.37 1012.81 1012.25 1011.65 1010.97 1010.53 1010.09 1009.49 1008.93 1008.33 1007.85 1007.37 1006.89 1006.33 1005.85 1005.29 1004.77 1004.25 1003.69 1003.17 1002.65 1002.17 1001.69 1001.13 1000.45 999.81 999.05 998.01 997.01 996.01 995.41 994.69 993.61 993.37 993.29 993.17 992.97 992.93 992.97 993.53 994.01 994.21 994.33 994.33 994.37 994.21 994.33
Wind_Speed
9 9 10 10 11 11 11 10 10 10 10 11 11 12 12 11 9 10 10 11 9 9 11 12 11 10 9 8 8 8 8 9 8 9 8 8 7 7 7 8 9 9 9 11 11 11 12 12 12 11 12 13 13 13 12 12 12 11 13 12 11 11
8 9 10 10 11 11 10 10 10 13 12 14 14 14 13 12 13 12 12 11 11 12 12 13 12 12 11 10 9 9 9 10 10 10 9 9 8 7 8 8 9 10 10 11 11 12 12 12 12 12 13 12 13 13 13 13 14 14 14 12 11 9
7 8 8 8 8 9 9 9 11 11 12 14 13 14 14 15 14 13 12 11 12 13 14 12 12 13 11 11 11 10 10 10 10 9 10 8 8 8 8 9 10 10 10 11 11 12 12 13 13 11 12 12 13 13 13 13 14 16 14 13 14 12
7 7 7 7 7 8 11 11 11 14 14 13 12 12 12 12 13 12 12 11 10 11 12 12 11 10 10 11 11 10 10 10 10 10 9 10 10 9 9 10 9 9 11 11 11 12 12 12 13 12 12 13 13 14 10 12 13 14 15 13 14 14
6 6 8 9 10 10 11 11 11 11 12 12 12 13 14 12 11 11 10 10 11 12 10 10 10 10 11 11 10 12 12 11 11 10 10 10 10 9 9 10 10 10 11 11 10 11 11 12 12 12 13 14 15 15 13 12 14 15 15 16 16 15
8 9 10 10 10 10 10 9 9 9 9 9 9 11 12 12 11 11 11 11 12 11 11 10 10 11 11 11 9 11 11 10 10 10 10 10 10 10 10 10 10 11 11 11 11 11 11 12 12 12 13 15 15 14 15 14 14 14 14 15 14 13
8 8 8 8 8 8 8 8 8 8 8 8 8 8 8 9 9 9 10 11 12 12 12 12 11 11 12 12 10 11 10 9 9 9 10 10 10 11 10 10 9 10 11 10 11 12 12 12 12 13 13 13 13 14 14 14 14 14 14 15 14 14
10 10 10 8 8 8 8 8 7 8 8 8 7 8 7 8 7 8 8 8 9 10 12 12 12 12 12 11 11 12 12 10 9 9 8 8 10 10 11 11 10 9 11 11 11 12 12 11 11 13 14 13 13 13 14 13 13 14 14 14 14 13
6 8 9 9 9 9 8 8 9 8 8 8 8 8 8 8 8 8 8 8 7 7 8 9 10 9 10 10 10 10 11 11 11 10 10 8 7 8 8 8 10 9 10 12 11 12 12 12 13 13 13 12 12 13 13 13 13 14 13 13 14 12
4 5 6 7 8 9 9 8 8 8 8 8 7 7 7 6 8 8 8 8 8 7 8 7 7 8 8 8 9 8 8 8 9 10 9 9 10 10 9 9 9 9 8 9 10 11 11 11 11 13 13 12 12 11 12 13 13 14 13 14 14 14
5 6 6 6 7 8 8 8 8 8 8 7 7 7 8 8 8 8 7 7 8 8 8 8 7 7 8 9 9 10 11 11 10 9 8 9 9 8 9 10 10 10 10 10 10 11 10 11 12 10 9 10 12 11 12 15 14 14 15 14 14 15
6 6 7 7 7 8 8 8 8 8 9 9 9 10 9 9 9 9 9 8 8 8 8 8 7 7 8 8 9 9 10 10 11 11 11 11 10 9 8 8 9 9 10 11 11 11 10 10 9 12 17 16 11 12 13 13 15 14 14 14 14 15
7 7 7 8 8 8 7 7 7 7 8 8 8 8 9 9 10 10 10 10 10 9 9 8 8 9 9 7 7 6 7 10 9 9 9 9 9 11 9 9 9 9 9 10 11 12 10 10 10 16 16 17 21 16 13 13 14 14 15 15 15 15
8 8 9 9 9 9 8 8 7 8 8 8 8 8 8 9 9 10 10 10 11 11 11 10 10 10 10 9 7 6 6 6 7 8 9 9 10 10 9 10 9 9 9 9 10 11 12 11 12 16 17 19 21 20 15 12 13 13 13 14 14 13
8 9 10 9 9 9 9 8 8 8 8 8 8 8 8 9 9 10 10 10 11 11 10 10 10 10 11 11 10 9 8 8 8 8 8 10 10 10 10 11 11 11 10 9 11 11 11 11 13 15 16 18 19 21 20 13 13 13 13 14 14 14
8 8 9 10 11 10 10 8 8 9 8 7 8 8 9 9 10 10 10 10 10 10 10 10 9 10 10 11 11 10 10 10 10 10 9 10 10 10 10 10 11 11 11 10 11 11 11 12 13 15 16 17 19 22 20 14 15 14 15 14 13 13
9 9 9 9 9 9 9 9 8 9 8 8 8 7 8 9 10 10 10 10 11 10 8 8 8 10 11 11 11 10 11 11 11 11 10 10 11 11 10 10 10 10 10 10 10 11 11 10 15 16 18 18 20 21 20 14 14 14 15 12 11 12
11 11 11 9 8 8 8 9 9 8 10 8 8 8 7 8 9 11 10 9 9 9 9 8 9 9 10 11 11 11 11 11 10 11 11 11 11 10 10 10 10 11 12 11 10 10 12 12 14 16 18 20 20 22 14 13 14 14 15 16 12 10
11 11 10 9 10 10 10 9 8 9 9 8 7 7 8 8 9 10 11 10 11 10 9 8 8 10 11 11 12 11 11 11 13 12 9 11 11 12 11 10 11 11 12 12 11 11 12 11 13 15 18 19 20 17 11 12 12 13 15 12 10 10
9 9 9 11 12 11 9 8 8 9 9 9 9 8 10 10 12 12 11 12 11 11 9 8 8 9 11 11 11 11 11 11 11 12 10 11 12 12 12 12 12 12 11 12 13 12 12 13 12 14 17 19 20 17 12 11 12 14 14 10 9 9
8 9 9 10 12 12 10 9 8 8 9 10 10 10 11 11 12 12 11 13 12 11 9 8 8 10 12 12 11 10 11 12 12 12 11 11 11 13 12 12 12 13 12 11 13 13 14 13 14 17 17 20 20 16 11 12 12 15 14 13 9 9
9 10 10 11 12 11 11 8 8 10 11 11 10 11 11 11 12 12 12 13 12 10 9 8 9 11 11 11 11 10 11 12 12 12 12 12 12 12 13 12 12 14 13 12 13 13 12 13 12 13 19 19 20 21 14 11 13 15 15 14 10 7
9 10 12 12 12 11 9 7 8 11 12 12 12 13 12 12 12 12 13 12 11 10 10 10 10 12 11 9 11 12 12 11 12 13 13 13 13 13 13 15 14 15 15 14 12 12 13 12 13 16 19 19 20 21 19 13 15 15 13 14 12 8
11 13 13 13 12 10 7 6 9 11 12 12 14 15 14 14 13 13 11 12 12 11 10 11 10 10 10 11 10 12 13 12 12 13 13 12 13 15 16 16 14 14 14 13 12 11 13 13 16 14 17 21 22 22 24 16 15 15 13 14 9 10
13 14 15 13 12 10 9 9 12 12 12 14 17 15 15 14 13 13 12 12 12 13 14 13 11 11 9 10 10 12 15 14 13 13 13 14 15 16 18 17 16 14 14 13 13 12 11 10 10 18 16 19 23 24 25 27 22 22 16 14 14 12
12 14 14 14 12 10 9 10 13 12 15 18 17 15 14 13 12 12 12 13 14 17 15 14 15 14 11 11 12 12 14 15 14 13 13 13 14 14 15 14 14 13 13 13 13 12 12 10 9 12 19 18 23 24 26 26 28 26 16 14 13 11
13 15 16 16 14 12 11 11 13 16 18 17 15 16 15 15 14 14 15 16 16 16 15 16 14 12 11 11 12 15 15 16 14 15 14 13 14 15 15 15 14 14 13 13 13 12 11 10 9 8 12 19 21 24 25 26 27 26 28 19 14 12
13 14 16 18 15 13 12 12 11 15 18 17 16 16 16 17 18 18 17 18 16 17 18 19 18 17 16 16 16 16 16 18 16 16 15 13 14 15 15 15 14 14 14 14 13 13 13 11 10 8 7 10 15 18 23 26 26 26 28 25 16 18
13 15 17 19 17 12 12 14 14 14 15 16 17 16 16 17 17 19 19 19 18 18 18 18 16 16 17 17 16 16 15 15 14 15 15 14 14 15 15 15 15 15 14 14 14 13 12 12 10 9 8 8 9 10 12 14 16 23 23 18 14 15
13 15 17 17 17 15 14 13 14 15 14 15 16 17 18 19 19 19 19 20 18 17 17 17 20 20 16 16 14 15 14 13 13 14 16 15 14 14 15 15 15 15 15 14 13 13 12 12 11 10 9 8 8 8 9 10 10 11 10 13 12 10
14 16 16 17 15 15 14 15 15 14 17 18 17 16 18 19 21 20 20 19 17 17 16 15 15 15 15 16 15 15 15 14 14 15 17 18 15 15 15 15 16 17 16 15 15 15 14 13 13 11 8 8 11 11 9 9 10 10 11 14 16 9
12 15 17 17 15 15 17 17 17 17 16 15 15 14 17 20 19 20 19 17 17 16 16 16 15 15 16 16 16 16 17 21 25 22 18 18 23 30 32 27 20 18 15 15 16 15 15 15 14 15 16 14 18 20 22 19 18 17 14 15 21 14
14 15 17 16 15 15 16 17 16 15 15 14 15 16 15 17 18 18 18 17 16 17 17 17 17 17 15 16 16 17 17 17 16 24 31 33 32 31 31 31 33 33 31 22 18 19 29 30 32 31 28 27 25 22 23 23 23 24 23 22 14 14
15 15 17 16 15 15 15 15 15 14 13 13 15 13 14 16 17 18 17 17 17 18 18 17 17 17 17 17 16 16 17 17 18 18 20 23 22 25 29 31 32 33 31 32 28 23 18 25 31 32 31 30 27 26 25 24 24 25 24 23 22 12
14 14 15 16 15 15 14 13 14 13 14 15 14 15 16 17 17 18 18 17 18 18 18 17 17 17 16 16 17 16 16 16 17 18 17 16 23 28 29 31 34 36 36 36 36 37 34 34 33 33 30 27 28 27 26 25 25 25 26 25 17 12
14 15 15 15 16 14 15 16 18 16 15 15 15 15 16 16 16 17 16 16 17 18 17 16 17 17 17 16 16 16 17 17 17 19 18 18 16 14 18 23 27 29 32 33 35 35 34 34 35 35 34 32 29 27 26 24 18 23 26 22 13 13
15 15 14 15 15 15 16 15 16 15 15 14 15 15 15 16 18 17 19 26 21 16 16 16 16 16 16 16 16 16 16 17 17 17 18 17 17 16 16 14 15 19 25 23 22 25 28 28 30 30 30 28 26 27 26 24 15 14 14 16 16 13
13 13 14 14 14 15 17 17 15 14 14 14 15 16 16 17 17 16 15 15 17 16 15 15 15 15 15 15 15 15 16 16 16 16 15 15 16 15 15 15 14 15 19 32 32 34 33 28 23 23 24 24 25 24 24 15 12 12 13 14 14 13
Wind_Direction
28 27 28 28 27 28 26 22 21 21 24 26 33 31 27 22 18 17 16 16 13 7 4 1 356 350 334 318 306 295 280 275 270 262 257 258 245 238 233 220 220 215 211 212 217 215 213 211 209 202 202 200 208 210 215 212 209 210 214 214 209 213
26 25 25 25 24 22 18 15 16 21 19 19 18 15 17 19 20 17 18 16 14 10 10 11 9 3 351 338 326 313 304 294 286 279 270 260 256 244 233 227 221 218 216 214 215 217 214 212 211 207 209 207 212 210 209 209 203 211 214 212 206 202
27 26 25 25 24 23 21 19 20 20 20 19 16 14 10 9 8 8 11 8 9 11 11 7 7 3 357 352 344 331 320 308 296 287 279 277 261 251 241 234 229 223 220 218 215 216 215 212 210 208 207 211 215 216 216 211 203 206 211 209 209 203
18 20 23 24 24 22 24 21 21 21 20 14 11 10 13 6 2 0 355 359 360 2 5 7 5 2 0 358 356 349 341 328 318 306 294 280 272 259 250 243 235 229 227 223 220 216 217 214 211 209 207 212 214 216 212 212 207 207 211 205 212 200
17 18 20 21 22 20 18 18 19 17 16 14 11 10 6 4 359 356 353 351 352 353 356 356 358 1 2 0 -0 356 350 344 330 321 307 295 284 270 254 249 243 236 229 227 225 221 219 216 213 211 209 213 215 216 214 209 208 208 209 209 211 201
4 8 9 10 12 14 15 16 16 14 13 13 11 9 3 0 356 352 354 353 352 351 351 352 350 354 359 358 356 353 348 345 342 332 320 308 295 285 274 256 250 244 237 235 231 228 224 219 218 216 213 216 215 217 219 215 213 213 212 215 215 203
11 11 7 8 9 9 6 7 5 4 7 9 10 4 357 354 352 350 351 350 349 351 354 351 351 351 351 350 348 348 346 343 344 339 328 321 308 296 284 271 254 251 247 239 233 229 226 222 218 218 219 217 216 219 221 219 214 214 214 216 214 208
355 358 359 359 1 1 0 2 1 359 359 359 356 354 352 349 347 337 341 343 346 346 350 349 349 348 346 343 343 343 342 341 338 334 332 328 317 306 294 281 269 249 250 245 239 235 232 223 220 225 225 222 220 221 224 226 223 221 219 218 219 208
355 349 347 348 347 351 352 351 351 351 350 350 354 351 343 339 339 335 336 337 333 335 340 342 338 335 337 339 337 336 337 339 337 335 329 321 307 302 292 286 277 266 254 251 245 241 239 237 231 230 228 225 223 221 224 225 225 225 221 221 221 213
326 337 335 339 339 336 338 341 341 342 338 336 339 339 338 333 332 327 328 326 328 330 332 328 333 332 326 328 329 328 331 332 333 331 326 325 324 320 311 297 287 276 264 256 250 245 240 238 237 233 230 226 221 219 221 226 228 230 226 224 224 221
329 323 324 322 324 326 327 329 331 333 333 330 333 333 331 332 326 322 321 321 320 324 323 323 323 327 328 325 324 329 333 334 332 327 324 322 321 318 313 308 301 290 275 261 255 256 244 239 239 235 224 219 223 216 220 228 230 228 229 227 222 221
304 308 306 308 311 316 316 318 322 325 325 325 329 334 333 335 328 323 324 321 322 323 322 321 319 320 323 322 325 328 328 325 325 328 329 328 324 321 314 304 293 288 286 279 263 249 249 248 245 240 237 232 229 229 233 232 231 231 233 232 226 224
300 300 302 304 309 305 309 305 309 313 311 313 319 320 325 325 320 321 322 321 322 322 322 322 321 319 316 313 312 315 323 325 324 321 320 319 321 318 312 311 302 297 291 284 279 271 255 245 244 242 234 231 228 231 234 233 236 235 233 233 227 227
302 306 306 306 304 304 304 306 304 305 306 308 311 315 318 318 313 313 313 315 319 320 322 323 324 324 320 318 315 315 311 310 309 314 314 316 316 317 314 308 299 294 290 282 278 274 270 266 252 241 235 232 229 228 233 235 235 232 232 232 228 227
297 296 299 299 301 303 302 302 299 295 300 301 303 311 309 309 310 307 308 309 313 315 317 321 324 324 322 319 316 317 317 313 312 311 317 314 311 307 309 308 308 302 298 289 282 276 268 267 265 260 239 233 230 228 227 236 234 233 233 230 228 226
289 288 287 288 289 292 295 290 284 282 282 283 289 296 299 302 303 303 303 304 304 306 310 313 317 317 317 316 315 318 320 321 318 319 317 311 308 304 300 301 299 298 298 293 287 281 277 271 273 266 251 238 232 232 228 233 235 235 235 231 224 221
287 283 283 283 287 289 288 286 284 286 281 270 272 277 287 291 292 293 294 295 298 300 304 307 311 314 315 314 312 312 315 314 315 316 316 312 307 303 300 299 299 294 293 289 283 283 276 269 270 269 263 254 243 236 230 234 235 237 238 232 223 220
295 294 290 288 284 282 282 284 289 287 285 281 273 278 278 281 284 286 291 290 290 293 297 303 306 308 310 310 308 309 312 313 310 312 313 308 300 291 290 290 288 288 290 288 282 281 276 272 266 263 262 257 252 247 238 238 237 239 239 239 229 213
280 283 283 283 283 284 283 284 285 283 281 278 273 277 280 281 279 282 285 285 286 290 291 295 300 303 305 305 302 304 308 312 312 309 311 301 297 295 291 284 283 285 285 284 284 275 272 272 267 266 263 258 256 251 244 241 241 240 241 236 219 216
275 275 281 291 294 292 295 294 296 292 285 281 283 283 282 281 279 280 278 277 281 281 286 294 298 299 300 300 297 301 304 304 301 297 298 296 294 291 286 288 288 281 273 276 281 277 276 278 266 260 262 259 254 248 246 245 244 243 240 234 214 215
290 294 294 292 290 298 308 311 304 290 282 282 283 280 277 278 280 281 281 282 284 284 284 288 290 292 291 288 290 297 298 298 297 294 296 291 289 286 289 287 284 285 280 275 277 275 271 270 272 269 262 258 254 250 244 247 248 248 242 236 225 209
302 294 292 293 297 309 313 313 303 292 287 284 283 276 272 278 281 283 287 286 285 284 284 286 287 284 282 284 290 292 288 289 291 289 291 291 290 289 287 285 280 282 281 277 277 276 268 269 267 266 262 258 253 248 245 243 247 247 247 240 229 205
304 301 302 300 302 304 304 304 297 291 291 289 288 280 286 292 292 293 287 285 283 281 279 280 279 280 277 280 286 289 286 283 284 286 285 288 288 284 283 282 281 278 276 271 264 263 265 258 264 270 266 262 256 250 246 243 243 248 247 249 234 213
303 299 297 298 302 307 307 301 293 291 294 293 286 290 301 298 301 297 290 282 277 274 272 274 274 272 275 280 281 282 280 278 277 277 280 281 281 283 283 280 277 273 269 270 263 256 258 253 245 259 263 260 257 250 244 243 243 241 244 244 236 225
305 302 301 304 308 316 322 319 306 299 296 290 293 304 303 305 302 295 289 282 281 280 281 281 277 275 270 274 275 276 276 280 280 277 277 276 275 272 275 274 273 269 266 264 262 260 248 237 240 245 251 252 252 250 245 242 243 243 241 244 242 233
303 304 306 310 313 318 322 319 308 304 301 297 307 305 302 302 300 294 287 283 283 288 285 284 283 280 274 274 278 276 275 276 277 276 275 276 275 275 272 270 269 267 263 261 262 257 252 241 238 234 239 244 246 248 247 246 244 243 241 240 242 236
317 314 310 310 314 319 321 319 312 307 303 306 313 310 312 310 306 299 291 290 290 288 288 290 286 283 279 273 276 278 278 275 273 275 271 270 271 268 267 266 266 264 263 261 260 262 259 250 232 226 235 238 242 244 246 246 246 245 245 243 241 229
318 312 309 308 314 322 319 317 317 311 307 312 311 310 309 306 303 297 292 291 289 289 291 292 290 285 280 279 280 275 274 272 271 269 271 267 263 263 262 264 264 262 261 260 259 261 261 255 245 228 225 227 240 241 244 244 244 244 243 244 240 231
321 316 316 310 315 324 319 316 312 307 307 306 307 307 306 302 298 295 293 291 292 293 291 289 288 289 287 282 278 272 269 269 267 264 264 262 263 264 264 264 263 264 262 260 260 261 262 259 246 239 227 216 227 231 235 238 244 245 247 249 245 229
319 313 314 309 312 316 314 312 308 308 307 304 304 305 304 299 296 295 293 293 293 291 292 289 287 286 284 282 278 276 272 266 263 263 260 259 258 261 264 263 263 262 263 265 264 265 265 261 254 236 220 215 212 221 222 229 235 236 231 236 237 221
317 310 306 302 307 308 305 300 299 300 302 302 300 298 297 294 295 292 290 290 290 287 288 285 284 283 283 281 278 271 266 265 266 262 262 254 252 253 258 260 260 258 260 265 266 267 266 265 259 249 220 213 202 205 217 221 224 220 225 227 226 201
310 306 304 300 302 302 301 298 298 298 292 293 291 290 291 292 292 291 290 290 289 289 289 287 284 284 283 281 280 280 276 265 262 262 261 264 257 253 253 253 256 257 261 262 260 258 261 261 263 273 273 234 221 221 221 221 220 220 221 224 227 194
308 301 296 294 295 294 293 290 289 289 289 291 292 291 285 287 290 292 291 291 290 290 290 288 287 285 283 282 281 281 281 284 274 266 268 267 266 262 259 259 260 261 260 261 262 259 258 262 267 268 265 264 262 246 234 229 229 231 230 226 227 191
303 296 292 294 295 290 292 288 284 285 288 291 293 289 287 287 289 292 292 291 290 289 287 285 283 284 283 283 280 280 282 283 286 282 269 271 284 292 294 293 290 286 284 281 276 274 275 270 267 264 263 262 257 255 252 244 239 235 231 228 218 199
294 292 290 290 290 288 286 283 287 292 293 295 296 294 293 291 290 291 291 290 289 288 287 285 285 284 283 282 280 280 279 280 283 285 289 282 279 279 277 276 276 277 278 277 275 271 267 266 264 263 263 258 254 252 249 247 245 241 233 229 222 195
291 288 287 285 283 286 292 290 294 299 299 299 297 296 295 293 291 291 291 291 290 289 287 285 283 281 281 279 279 279 279 278 278 280 282 288 290 281 275 271 270 269 268 265 262 261 259 257 256 257 256 255 251 244 240 235 237 240 236 228 223 210
287 287 284 287 291 293 296 293 298 300 299 298 297 295 294 294 294 293 289 288 287 286 285 285 283 281 280 280 279 279 278 278 278 279 281 282 284 284 283 286 282 280 282 283 282 275 262 252 252 252 253 252 247 238 232 229 231 233 231 227 227 215
283 283 290 295 296 296 298 295 298 299 298 295 296 296 294 294 293 291 290 290 287 284 283 281 281 279 279 278 277 277 276 277 277 277 278 279 278 279 281 284 282 280 278 279 278 275 275 262 254 254 256 255 253 244 225 221 220 223 224 227 230 217